This is the latest recevied weather packets stored in our database for station/object WX5HOT. If no packets are shown the sender has not sent any weather packets the latest 10 day(s).
| Time | Temp. | Humidity | Pressure | Rain* | Wind** | Luminosity | Snow |
|---|---|---|---|---|---|---|---|
| 1777907540 | 17.22° C | 64% | 1064.3 hPa | 0 mm | - | 697 W/m² | - |
| 1777907236 | 16.67° C | 64% | 1064.4 hPa | 0 mm | - | 680 W/m² | - |
| 1777906933 | 16.67° C | 63% | 1064.5 hPa | 0 mm | - | 666 W/m² | - |
| 1777906631 | 16.67° C | 64% | 1064.5 hPa | 0 mm | - | 649 W/m² | - |
| 1777906326 | 16.67° C | 64% | 1064.4 hPa | 0 mm | - | 634 W/m² | - |
| 1777906023 | 16.67° C | 64% | 1064.4 hPa | 0 mm | - | 619 W/m² | - |
| 1777905720 | 16.67° C | 63% | 1064.4 hPa | 0 mm | - | 602 W/m² | - |
| 1777905416 | 16.67° C | 63% | 1064.4 hPa | 0 mm | - | 586 W/m² | - |
| 1777905115 | 16.67° C | 63% | 1064.4 hPa | 0 mm | - | 569 W/m² | - |
| 1777904811 | 16.67° C | 63% | 1064.4 hPa | 0 mm | - | 549 W/m² | - |
| 1777904508 | 16.67° C | 63% | 1064.6 hPa | 0 mm | - | 531 W/m² | - |
| 1777904204 | 16.67° C | 63% | 1064.5 hPa | 0 mm | - | 512 W/m² | - |
| 1777903902 | 16.67° C | 63% | 1064.4 hPa | 0 mm | - | 495 W/m² | - |
| 1777903599 | 16.67° C | 63% | 1064.4 hPa | 0 mm | - | 475 W/m² | - |
| 1777903294 | 16.67° C | 64% | 1064.5 hPa | 0 mm | - | 455 W/m² | - |
| 1777902992 | 16.11° C | 64% | 1064.3 hPa | 0 mm | - | 436 W/m² | - |
| 1777902688 | 16.11° C | 63% | 1064.3 hPa | 0 mm | - | 415 W/m² | - |
| 1777902386 | 16.11° C | 66% | 1064.4 hPa | 0 mm | - | 400 W/m² | - |
| 1777902082 | 15.56° C | 65% | 1064.5 hPa | 0 mm | - | 381 W/m² | - |
| 1777901780 | 15.56° C | 65% | 1064.2 hPa | 0 mm | - | 362 W/m² | - |
| 1777901477 | 15.56° C | 65% | 1064.5 hPa | 0 mm | - | 344 W/m² | - |
| 1777901175 | 15.56° C | 67% | 1064.6 hPa | 0 mm | - | 324 W/m² | - |
| 1777900873 | 15° C | 68% | 1064.6 hPa | 0 mm | - | 304 W/m² | - |
| 1777900570 | 15° C | 68% | 1064.6 hPa | 0 mm | - | 284 W/m² | - |
| 1777900267 | 15° C | 69% | 1064.5 hPa | 0 mm | - | 264 W/m² | - |
* Rain latest hour (hover to see other rain measurements)
** Current wind speed in m/s (hover to see current wind gust speed)